Location: West Sayville
(40.7279°N, 73.0976°W)
Time: 04:28:41
(UTC+00:00)

Cosmos 1689 Rocket - Pass Details

Date: 29 October 2020
Orbit: 360 x 374 km, 97.5° (Epoch: 29 November)

Event Time Altitude Azimuth Distance (km) Brightness Sun altitude
Rises 22:53:28 0° 14° (NNE) 2,204 5.7 -12.2°
Reaches altitude 10° 22:55:25 10° 17° (NNE) 1,351 4.6 -12.6°
Maximum altitude 22:58:17 70° 101° (ESE) 388 1.8 -13.1°
Drops below altitude 10° 23:01:07 10° 186° (S) 1,339 5.0 -13.7°
Sets 23:03:01 0° 189° (S) 2,171 6.1 -14.0°
